Dewpoint
51 48 47 46 47 48 49 49 48 46 43 40 39 38 38 38 38 37 37 37 36 35
49 47 47 47 48 49 49 48 46 44 40 37 36 36 34 34 34 35 36 36 35 34
49 48 47 48 48 48 49 48 45 40 36 34 33 34 34 34 34 34 35 34 31 30
49 48 48 48 49 49 48 45 39 36 35 34 35 36 36 36 34 32 30 29 29 27
49 48 49 50 49 47 43 40 36 34 35 36 37 38 36 32 29 27 28 28 29 27
50 49 49 49 46 43 41 40 39 38 38 37 36 35 31 28 26 25 25 25 24 25
50 50 49 47 45 43 41 39 38 37 36 35 33 29 26 25 24 23 25 26 26 25
49 50 47 45 42 40 39 35 35 34 33 32 28 24 25 25 24 24 24 26 26 28
47 45 42 39 38 36 36 35 33 31 28 26 24 33 30 26 23 23 23 23 25 26
39 38 38 37 37 36 35 33 29 27 27 28 29 31 30 28 24 24 25 26 27 23
38 37 37 37 36 35 34 32 30 28 29 30 31 33 31 29 26 26 27 27 25 25
37 37 37 36 34 33 31 30 29 29 30 31 31 33 30 27 26 25 24 24 26 26
37 35 33 33 32 31 30 31 31 31 31 33 32 33 29 26 25 25 23 24 25 28
34 33 31 30 27 27 29 31 32 32 32 31 31 30 30 28 26 25 23 23 24 25
Lifted_Index
1 2 6 9 9 9 10 10 10 11 10 10 10 10 11 11 12 13 14 14 14 14
1 3 7 9 9 9 9 10 10 10 10 10 10 10 10 11 12 13 13 13 13 12
2 4 7 8 9 9 9 9 9 9 9 10 10 10 11 11 11 11 11 11 12 12
3 5 6 7 8 8 8 8 7 8 9 10 10 10 10 10 10 10 10 12 13 14
3 4 6 6 7 7 7 7 7 7 8 10 10 10 9 9 9 11 12 14 15 16
3 4 5 6 6 6 6 6 6 7 8 9 9 9 9 10 11 13 15 16 17 18
2 3 4 5 6 6 6 6 6 7 8 9 10 10 12 13 14 15 16 17 18 19
2 2 4 4 5 5 5 6 7 7 8 9 11 13 15 16 16 17 18 18 19 19
2 3 3 4 4 5 5 6 8 9 10 11 14 15 16 17 17 18 18 18 19 19
3 3 4 4 4 5 6 8 9 10 11 13 15 16 17 18 18 18 18 18 18 18
3 4 4 4 5 6 8 9 9 11 13 14 15 16 17 18 18 18 18 18 18 18
4 5 5 6 7 8 9 10 11 13 14 15 16 17 18 18 18 18 18 18 18 18
5 6 7 8 9 9 10 12 13 14 15 16 17 18 18 18 17 17 17 17 18 18
6 7 8 9 10 11 12 13 14 14 16 17 18 18 18 18 17 16 16 17 18 18